Flag for Poland Weather past 2 weeks in Kraków, Poland

Now
21 °F

Clear.


Feels Like: 21 °F
Forecast: 17 / 31 °F
Wind: 1 mph from North

Location: Krakow Airport

Current Time: Feb 1, 2015 at 7:16:45 AM

Latest Report: Feb 1, 2015 at 7:00 AM


Visibility: 10 mi

Pressure: 29.27 "Hg

Humidity: 93%

Dew point: 19 °F

Location of KrakówLocation

Historic Weather in Kraków — Graph

°F

Kraków temperature yesterday

Maximum temperature yesterday: 32 °F (at 12:00 AM)
Minimum temperature yesterday: 28 °F (at 6:00 PM)
Average temperature yesterday: 31 °F

Past Weeks' High & Low Weather Summary

 TemperatureHumidityPressure
High55 °F (Jan 17, 12:00 PM)100% (Jan 17, 7:30 AM)30.24 "Hg (Jan 17, 7:30 AM)
Low16 °F (Jan 27, 4:30 AM)51% (Jan 17, 11:00 AM)28.77 "Hg (Jan 30, 4:30 PM)
Average33 °F92%29.81 "Hg
* Reported Jan 17 6:00 AM — Feb 1 6:00 AM, Kraków, Weather by CustomWeather, © 2014

Note: Actual official high and low records may vary slightly from our data, if they occured in-between our weather recording intervals... More about our weather records

Advertising

Kraków weather history for previous 24 hours

 ConditionsComfort  
Time TempWeatherWind HumidityBarometerVisibility
6:00 AM
Feb 1
19 °FClear.No wind100%29.24 "Hg10 mi
5:30 AM19 °FClear.1 mph100%29.24 "Hg10 mi
5:00 AM19 °FClear.1 mph100%29.24 "Hg10 mi
4:30 AM23 °FFog.1 mph93%29.21 "HgN/A
4:00 AM23 °FPassing clouds.No wind93%29.21 "HgN/A
3:30 AM25 °FPassing clouds.No wind93%29.21 "HgN/A
3:00 AM27 °FPassing clouds.2 mph93%29.21 "HgN/A
2:30 AM27 °FPassing clouds.1 mph93%29.21 "HgN/A
2:00 AM27 °FPassing clouds.No wind86%29.21 "HgN/A
1:30 AM27 °FPassing clouds.5 mph86%29.18 "HgN/A
1:00 AM28 °FPassing clouds.5 mph86%29.18 "HgN/A
12:30 AM28 °FPassing clouds.5 mph86%29.18 "HgN/A
12:00 AM28 °FPassing clouds.3 mph86%29.18 "HgN/A
11:30 PM
Jan 31
32 °FPassing clouds.6 mph80%29.18 "HgN/A
11:00 PM32 °FPassing clouds.7 mph80%29.18 "HgN/A
10:00 PM32 °FPassing clouds.8 mph80%29.15 "HgN/A
9:30 PM30 °FPassing clouds.6 mph86%29.15 "HgN/A
9:00 PM30 °FPassing clouds.5 mph80%29.15 "HgN/A
8:30 PM30 °FPassing clouds.6 mph80%29.12 "HgN/A
8:00 PM30 °FPassing clouds.6 mph80%29.12 "HgN/A
7:30 PM28 °FPassing clouds.3 mph80%29.12 "HgN/A
7:00 PM28 °FPassing clouds.3 mph80%29.12 "HgN/A
6:30 PM28 °FPassing clouds.3 mph80%29.12 "HgN/A
6:00 PM28 °FPassing clouds.5 mph80%29.12 "HgN/A
5:30 PM30 °FPassing clouds.6 mph75%29.09 "HgN/A
5:00 PM30 °FPassing clouds.5 mph75%29.09 "HgN/A
4:30 PM30 °FPassing clouds.7 mph80%29.06 "HgN/A
4:00 PM32 °FPassing clouds.12 mph75%29.06 "HgN/A
3:30 PM32 °FPassing clouds.15 mph75%29.03 "HgN/A
3:00 PM32 °FPassing clouds.15 mph75%29.03 "HgN/A
2:30 PM32 °FPassing clouds.17 mph80%29.03 "HgN/A
2:00 PM32 °FPassing clouds.14 mph87%29.03 "HgN/A
1:30 PM32 °FPassing clouds.20 mph87%29.00 "HgN/A
1:00 PM32 °FScattered clouds.15 mph87%29.00 "HgN/A
12:30 PM30 °FPartly sunny.17 mph93%29.00 "HgN/A
12:00 PM30 °FPartly sunny.17 mph93%29.00 "HgN/A
11:30 AM30 °FPartly sunny.15 mph93%29.00 "HgN/A
11:00 AM30 °FPartly sunny.15 mph93%28.97 "HgN/A
10:30 AM30 °FPassing clouds.15 mph93%28.97 "HgN/A
10:00 AM30 °FPassing clouds.15 mph93%28.94 "HgN/A
9:30 AM30 °FSunny.14 mph93%28.94 "Hg10 mi
9:00 AM30 °FPassing clouds.14 mph93%28.94 "HgN/A
8:30 AM30 °FPassing clouds.12 mph93%28.91 "HgN/A
8:00 AM30 °FPassing clouds.9 mph93%28.88 "HgN/A
7:30 AM30 °FPassing clouds.10 mph93%28.88 "HgN/A
7:00 AM30 °FPassing clouds.10 mph93%28.88 "HgN/A
Weather by CustomWeather, © 2014

See weather overviewHow to use our weather pages